Knoxville, IA

10:36 PM CDT on April 21, 2018 (GMT -0500)
Knoxville Municipal

Weather History for KOXV - January, 2014

Change the Weather History Date:

Thursday, January 30, 2014

  Actual Average Record
Temperature  
Mean Temperature 26 °F -  
Max Temperature 41 °F 33 °F 64 °F (2012)
Min Temperature 12 °F 13 °F -18 °F (1965)
Degree Days  
Heating Degree Days 38    
Moisture  
Dew Point 13 °F    
Average Humidity 52    
Maximum Humidity 74    
Minimum Humidity 38    
Precipitation  
Precipitation 0.00 in - - ()
Sea Level Pressure  
Sea Level Pressure 29.72 in    
Wind  
Wind Speed 20 mph (WSW)    
Max Wind Speed 28 mph    
Max Gust Speed 37 mph    
Visibility 10 miles    
Events Rain , Snow    
Averages and records for this station are not official NWS values.
T = Trace of Precipitation, MM = Missing Value Source: NWS Daily Summary

Daily Weather History Graph

Daily Weather History Graph

Search for Another Location

Airport or City:

Astronomy

Jan. 30, 2014 Rise Set
Actual Time 7:25 AM CST 5:26 PM CST
Civil Twilight 6:56 AM CST 5:55 PM CST
Nautical Twilight 6:23 AM CST 6:28 PM CST
Astronomical Twilight 5:50 AM CST 7:01 PM CST
Moon 6:51 AM CST (1/30) 5:39 PM CST (1/30)
Length of Visible Light 10h 59m
Length of Day
10h 00m
Waning Crescent, 0% of the Moon is Illuminated
Jan 30
Waning Crescent
Jan 30
New
Feb 6
First Quarter
Feb 14
Full
Feb 22
Last Quarter

Hourly Weather History & Observations

Time (CST) Temp. Windchill Dew Point Humidity Pressure Visibility Wind Dir Wind Speed Gust Speed Precip Events Conditions
12:15 AM 32.0 °F 19.8 °F 10.4 °F 41% 29.73 in 10.0 mi SSW 20.7 mph 31.1 mph N/A   Clear
12:35 AM 32.0 °F 20.1 °F 10.4 °F 41% 29.72 in 10.0 mi SSW 19.6 mph 31.1 mph N/A   Clear
12:55 AM 32.0 °F 20.1 °F 10.4 °F 41% 29.70 in 10.0 mi SSW 19.6 mph 32.2 mph N/A   Clear
1:15 AM 32.0 °F 19.8 °F 10.4 °F 41% 29.70 in 10.0 mi SSW 20.7 mph 28.8 mph N/A   Clear
1:35 AM 33.8 °F 21.9 °F 10.4 °F 38% 29.69 in 10.0 mi SSW 21.9 mph 29.9 mph N/A   Scattered Clouds
1:55 AM 33.8 °F 21.9 °F 10.4 °F 38% 29.68 in 10.0 mi SSW 21.9 mph 31.1 mph N/A   Mostly Cloudy
2:15 AM 33.8 °F 22.5 °F 10.4 °F 38% 29.68 in 10.0 mi SSW 19.6 mph 32.2 mph N/A   Mostly Cloudy
2:35 AM 33.8 °F 22.2 °F 10.4 °F 38% 29.67 in 10.0 mi SSW 20.7 mph 29.9 mph N/A   Overcast
2:55 AM 32.0 °F 19.8 °F 10.4 °F 41% 29.66 in 10.0 mi SSW 20.7 mph 31.1 mph N/A   Overcast
3:15 AM 32.0 °F 19.5 °F 10.4 °F 41% 29.65 in 10.0 mi SSW 21.9 mph 33.4 mph N/A   Overcast
3:35 AM 32.0 °F 19.8 °F 10.4 °F 41% 29.63 in 10.0 mi SSW 20.7 mph 29.9 mph N/A   Overcast
3:55 AM 32.0 °F 19.2 °F 10.4 °F 41% 29.62 in 10.0 mi SSW 23.0 mph 33.4 mph N/A   Overcast
4:15 AM 32.0 °F 19.5 °F 10.4 °F 41% 29.62 in 10.0 mi SSW 21.9 mph 34.5 mph N/A   Overcast
4:35 AM 32.0 °F 18.9 °F 10.4 °F 41% 29.60 in 10.0 mi South 24.2 mph 31.1 mph N/A   Overcast
4:55 AM 33.8 °F 21.6 °F 10.4 °F 38% 29.58 in 10.0 mi South 23.0 mph 34.5 mph N/A   Overcast
5:15 AM 33.8 °F 21.9 °F 10.4 °F 38% 29.56 in 10.0 mi South 21.9 mph 34.5 mph N/A   Overcast
5:35 AM 33.8 °F 21.3 °F 10.4 °F 38% 29.56 in 10.0 mi South 24.2 mph 33.4 mph N/A   Overcast
5:55 AM 33.8 °F 20.8 °F 10.4 °F 38% 29.55 in 10.0 mi South 26.5 mph 33.4 mph N/A   Overcast
6:15 AM 33.8 °F 21.9 °F 10.4 °F 38% 29.55 in 10.0 mi South 21.9 mph 28.8 mph N/A   Overcast
6:35 AM 33.8 °F 20.5 °F 10.4 °F 38% 29.51 in 10.0 mi South 27.6 mph 35.7 mph N/A   Overcast
6:55 AM 33.8 °F 22.5 °F 10.4 °F 38% 29.53 in 10.0 mi SSW 19.6 mph 36.8 mph N/A   Overcast
7:15 AM 33.8 °F 21.9 °F 10.4 °F 38% 29.52 in 10.0 mi SSW 21.9 mph 32.2 mph N/A   Overcast
7:35 AM 33.8 °F 21.9 °F 10.4 °F 38% 29.53 in 10.0 mi SSW 21.9 mph 33.4 mph N/A   Overcast
7:55 AM 33.8 °F 20.8 °F 10.4 °F 38% 29.51 in 10.0 mi SSW 26.5 mph 34.5 mph N/A   Light Drizzle
8:15 AM 33.8 °F 21.6 °F 10.4 °F 38% 29.52 in 10.0 mi SSW 23.0 mph 35.7 mph N/A   Mostly Cloudy
8:35 AM 33.8 °F 22.8 °F 10.4 °F 38% 29.56 in 10.0 mi SW 18.4 mph 35.7 mph N/A   Light Drizzle
8:55 AM 33.8 °F 22.2 °F 14.0 °F 44% 29.55 in 6.0 mi SSW 20.7 mph 35.7 mph N/A Snow Light Snow
9:15 AM 32.0 °F 20.5 °F 17.6 °F 55% 29.54 in 7.0 mi SSW 18.4 mph 28.8 mph N/A Rain Light Rain
9:35 AM 33.8 °F 22.8 °F 17.6 °F 52% 29.54 in 10.0 mi SSW 18.4 mph 26.5 mph N/A   Mostly Cloudy
9:55 AM 33.8 °F 21.0 °F 17.6 °F 52% 29.54 in 10.0 mi SW 25.3 mph 32.2 mph N/A   Overcast
10:15 AM 35.6 °F 24.2 °F 17.6 °F 48% 29.55 in 10.0 mi SW 21.9 mph 34.5 mph N/A   Overcast
10:35 AM 35.6 °F 25.9 °F 17.6 °F 48% 29.57 in 10.0 mi SW 16.1 mph 27.6 mph N/A   Overcast
10:55 AM 35.6 °F 25.5 °F 17.6 °F 48% 29.58 in 10.0 mi SW 17.3 mph 31.1 mph N/A   Overcast
11:15 AM 35.6 °F 24.0 °F 17.6 °F 48% 29.58 in 10.0 mi SW 23.0 mph 34.5 mph N/A   Overcast
11:35 AM 37.4 °F 26.6 °F 19.4 °F 48% 29.59 in 10.0 mi SW 21.9 mph 31.1 mph N/A   Overcast
11:55 AM 39.2 °F 29.3 °F 19.4 °F 45% 29.58 in 10.0 mi SW 20.7 mph 28.8 mph N/A   Overcast
12:15 PM 39.2 °F 28.3 °F 19.4 °F 45% 29.58 in 10.0 mi SW 25.3 mph 33.4 mph N/A   Overcast
12:35 PM 39.2 °F 29.8 °F 19.4 °F 45% 29.59 in 10.0 mi WSW 18.4 mph 32.2 mph N/A   Overcast
12:55 PM 41.0 °F 32.5 °F 21.2 °F 45% 29.58 in 10.0 mi WSW 17.3 mph 28.8 mph N/A   Overcast
1:15 PM 41.0 °F 32.8 °F 21.2 °F 45% 29.59 in 10.0 mi WSW 16.1 mph 27.6 mph N/A   Mostly Cloudy
1:35 PM 39.2 °F 28.7 °F 26.6 °F 61% 29.62 in 10.0 mi WNW 23.0 mph 31.1 mph N/A   Mostly Cloudy
1:55 PM 35.6 °F 23.4 °F 24.8 °F 65% 29.64 in 10.0 mi WNW 25.3 mph 33.4 mph N/A   Overcast
2:15 PM 35.6 °F 25.5 °F 23.0 °F 60% 29.68 in 10.0 mi NW 17.3 mph 28.8 mph N/A   Mostly Cloudy
2:35 PM 33.8 °F 21.9 °F 21.2 °F 60% 29.70 in 10.0 mi NNW 21.9 mph 29.9 mph N/A   Mostly Cloudy
2:55 PM 32.0 °F 19.5 °F 17.6 °F 55% 29.73 in 10.0 mi NNW 21.9 mph 31.1 mph N/A   Scattered Clouds
3:15 PM 30.2 °F 16.5 °F 17.6 °F 60% 29.75 in 10.0 mi NNW 24.2 mph 32.2 mph N/A   Clear
3:35 PM 30.2 °F 17.4 °F 17.6 °F 60% 29.76 in 10.0 mi NW 20.7 mph 28.8 mph N/A   Clear
3:55 PM 30.2 °F 18.1 °F 17.6 °F 60% 29.79 in 10.0 mi NNW 18.4 mph 25.3 mph N/A   Clear
4:15 PM 28.4 °F 15.8 °F 15.8 °F 59% 29.80 in 10.0 mi NW 18.4 mph 26.5 mph N/A   Clear
4:35 PM 28.4 °F 15.1 °F 15.8 °F 59% 29.81 in 10.0 mi NNW 20.7 mph - N/A   Clear
4:55 PM 26.6 °F 14.7 °F 14.0 °F 59% 29.83 in 10.0 mi NNW 15.0 mph 21.9 mph N/A   Clear
5:15 PM 24.8 °F 12.4 °F 14.0 °F 64% 29.85 in 10.0 mi NW 15.0 mph 21.9 mph N/A   Clear
5:35 PM 24.8 °F 14.0 °F 14.0 °F 64% 29.86 in 10.0 mi NNW 11.5 mph 17.3 mph N/A   Clear
5:55 PM 24.8 °F 14.6 °F 14.0 °F 64% 29.87 in 10.0 mi NNW 10.4 mph - N/A   Clear
6:15 PM 23.0 °F 13.1 °F 14.0 °F 68% 29.88 in 10.0 mi NNW 9.2 mph - N/A   Clear
6:35 PM 23.0 °F 11.7 °F 14.0 °F 68% 29.89 in 10.0 mi NNW 11.5 mph - N/A   Clear
6:55 PM 21.2 °F 10.1 °F 14.0 °F 74% 29.91 in 10.0 mi NNW 10.4 mph - N/A   Clear
7:15 PM 21.2 °F 9.5 °F 12.2 °F 68% 29.94 in 10.0 mi NNW 11.5 mph - N/A   Clear
7:35 PM 19.4 °F 8.6 °F 10.4 °F 68% 29.95 in 10.0 mi NNW 9.2 mph - N/A   Clear
7:55 PM 19.4 °F 6.6 °F 10.4 °F 68% 29.95 in 10.0 mi NNW 12.7 mph - N/A   Clear
8:15 PM 19.4 °F 6.0 °F 8.6 °F 63% 29.97 in 10.0 mi NNW 13.8 mph - N/A Snow Light Snow
8:35 PM 17.6 °F 4.3 °F 8.6 °F 68% 29.98 in 10.0 mi NNW 12.7 mph - N/A   Clear
8:55 PM 17.6 °F 4.3 °F 8.6 °F 68% 29.99 in 10.0 mi NNW 12.7 mph 18.4 mph N/A   Clear
9:15 PM 17.6 °F 2.2 °F 8.6 °F 68% 29.99 in 10.0 mi NNW 17.3 mph 23.0 mph N/A   Clear
9:35 PM 15.8 °F 0.9 °F 6.8 °F 68% 30.00 in 10.0 mi NNW 15.0 mph - N/A   Clear
9:55 PM 15.8 °F -0.6 °F 5.0 °F 62% 29.99 in 10.0 mi NNW 18.4 mph - N/A   Clear
10:15 PM 14.0 °F -1.4 °F 3.2 °F 62% 30.01 in 10.0 mi NNW 15.0 mph 21.9 mph N/A   Scattered Clouds
10:35 PM 14.0 °F -0.2 °F 3.2 °F 62% 30.03 in 10.0 mi NNW 12.7 mph 20.7 mph N/A   Mostly Cloudy
10:55 PM 14.0 °F 0.5 °F 3.2 °F 62% 30.03 in 10.0 mi NNW 11.5 mph 18.4 mph N/A   Scattered Clouds
11:15 PM 14.0 °F 1.2 °F 3.2 °F 62% 30.05 in 10.0 mi NW 10.4 mph - N/A   Scattered Clouds
11:35 PM 12.2 °F -2.5 °F 3.2 °F 67% 30.06 in 10.0 mi NNW 12.7 mph - N/A   Mostly Cloudy
11:55 PM 12.2 °F -2.5 °F 3.2 °F 67% 30.06 in 10.0 mi NNW 12.7 mph - N/A   Overcast